Temperature
21 20 20 21 22 22 22 22 22 23 25 24 23 22 22 24 25 24 22 23 23 23 22 22 22 21 21 20 20 20 20 19 19 18 19 19 18 17 17 17 17 17 17 17
19 19 22 22 24 23 23 22 22 23 24 24 24 24 23 23 24 23 22 22 23 22 22 22 22 20 20 20 19 19 19 19 19 19 19 18 18 18 17 17 17 17 17 17
18 20 23 24 24 23 23 22 22 22 23 24 24 22 22 23 22 22 23 24 24 23 21 21 21 20 19 18 18 18 19 19 19 18 18 18 17 17 17 17 17 17 17 17
19 22 22 22 23 23 22 24 24 24 22 21 22 19 21 22 22 21 21 22 22 22 21 20 20 20 19 18 17 17 18 18 18 17 17 17 17 16 16 16 17 17 17 17
20 21 21 22 23 24 22 24 24 24 22 21 21 20 21 21 20 21 21 22 22 22 22 21 20 19 19 18 17 16 16 17 16 16 16 16 16 15 16 16 15 15 16 17
20 22 23 23 24 24 24 23 21 19 19 19 20 21 20 20 20 21 21 22 23 22 22 21 19 19 18 18 17 16 16 16 16 15 15 15 15 15 15 16 14 15 15 16
21 22 23 24 23 24 22 21 19 19 19 19 20 20 20 22 21 21 21 22 22 22 21 21 20 19 19 18 18 17 16 16 15 15 15 15 15 15 15 16 14 14 14 15
19 18 22 23 23 21 22 20 18 18 18 19 21 19 21 22 23 23 23 23 23 22 22 22 21 20 19 18 18 17 16 16 16 15 15 15 15 16 16 15 14 14 14 15
19 20 23 24 23 23 20 20 21 19 19 18 20 21 22 21 21 22 22 22 22 22 22 22 21 20 19 18 18 17 17 17 16 15 15 15 16 16 15 15 14 14 15 15
20 18 22 23 24 23 21 22 16 19 18 17 19 20 19 20 21 21 20 21 23 23 22 21 21 20 19 18 18 17 17 17 16 16 16 15 16 16 15 16 16 16 16 16
18 19 19 22 22 21 21 21 20 19 18 18 18 19 19 20 21 20 21 23 23 23 23 22 21 20 19 18 17 17 17 16 16 16 16 16 15 16 16 16 17 17 17 17
14 14 17 19 20 20 19 18 17 16 17 16 16 17 20 19 20 20 21 23 23 23 23 22 21 20 18 18 17 16 16 16 16 16 16 16 16 15 16 16 16 16 15 16
16 14 16 18 19 19 18 17 16 15 15 15 16 17 19 19 21 22 23 24 23 23 23 22 21 20 19 18 17 17 16 16 16 16 16 16 16 16 16 16 15 15 16 16
17 15 15 17 18 18 17 18 18 16 15 16 16 18 19 20 20 20 22 23 23 23 23 22 21 20 19 19 19 18 17 17 17 16 16 16 16 16 16 17 17 16 17 16
15 16 15 16 17 18 18 19 18 17 17 16 18 18 19 20 19 21 22 22 22 22 22 22 21 21 20 19 19 19 18 17 17 16 15 16 16 16 16 16 16 15 15 15
14 15 15 17 17 17 17 18 18 18 18 17 18 18 20 20 20 20 22 22 22 22 22 22 22 21 21 20 20 19 18 18 17 17 16 16 15 15 15 15 15 15 14 14
15 15 14 14 16 16 15 18 18 18 19 19 18 19 19 19 20 21 22 23 23 22 22 21 21 20 20 20 20 19 19 18 17 18 18 17 16 15 15 15 15 15 14 14
14 14 14 13 14 13 17 17 18 18 19 19 19 19 19 19 22 22 23 24 23 22 22 21 20 20 19 19 19 18 18 18 18 18 17 17 16 16 15 15 15 14 14 14
14 13 13 12 14 15 17 18 18 18 19 20 19 20 20 21 20 20 22 23 22 21 21 20 19 19 18 18 18 19 19 18 18 18 17 17 16 16 16 16 15 15 15 14
12 12 13 12 13 14 17 18 19 20 19 20 20 19 20 20 18 18 21 21 21 20 19 19 18 17 16 16 16 17 17 17 17 17 17 17 16 16 16 15 15 14 14 14
13 13 13 13 12 13 16 17 18 18 19 22 22 22 22 20 20 21 20 20 19 19 18 18 17 16 16 15 15 15 15 15 15 15 16 16 16 15 14 14 13 13 13 13
13 13 14 13 13 14 17 17 17 18 21 23 23 23 22 22 21 20 19 19 18 18 17 16 16 16 15 15 15 14 14 13 13 13 14 14 14 13 12 13 12 12 12 13
12 13 13 13 14 16 17 17 18 18 20 22 22 22 22 21 20 19 18 18 18 17 16 15 15 15 14 14 14 14 13 13 12 12 12 12 12 12 12 12 12 12 12 12
13 13 13 13 15 15 16 18 19 20 21 22 22 22 21 20 19 19 18 17 17 16 15 15 14 14 14 14 14 13 13 13 12 12 11 11 11 11 11 12 12 12 12 12
12 12 12 13 14 15 18 17 18 19 21 23 22 22 22 21 19 18 18 17 16 16 15 15 15 14 14 14 14 13 13 12 12 11 11 11 11 11 11 11 12 12 12 12
12 12 12 12 13 13 14 16 15 18 20 22 22 22 21 21 20 18 18 17 16 16 16 15 15 14 14 14 14 13 12 12 12 11 11 11 10 10 11 11 11 11 11 11
Wind_Speed
1 2 4 6 6 6 7 6 7 7 9 3 8 12 12 10 4 5 8 8 9 7 6 5 5 5 7 8 8 8 8 7 6 3 3 5 5 3 3 4 7 8 10 12
2 4 7 9 10 11 13 9 9 9 9 5 7 6 8 6 6 10 14 10 10 8 5 5 6 5 5 5 4 3 5 8 8 6 3 3 3 3 3 4 5 9 8 10
7 8 9 14 17 9 10 7 6 8 7 4 4 6 6 5 1 8 12 11 10 10 9 7 5 4 5 4 4 3 4 5 5 4 3 3 3 2 2 3 4 6 10 9
9 12 13 18 18 9 7 7 6 6 3 4 2 7 8 4 4 6 7 8 8 8 9 8 7 6 5 4 4 5 5 4 4 6 5 5 4 3 3 3 3 3 7 11
8 5 8 12 11 9 8 8 4 4 3 3 1 1 7 2 7 8 7 7 8 8 9 9 9 8 7 6 5 5 5 4 4 5 5 5 4 3 4 4 5 4 1 5
7 7 7 9 5 1 1 2 4 4 3 4 6 5 6 4 7 6 6 8 8 8 8 8 8 8 7 8 7 6 6 6 6 6 5 6 7 8 8 8 5 3 2 1
4 7 8 8 6 3 3 4 2 3 1 6 6 5 6 4 7 8 9 10 10 10 9 9 10 9 9 9 9 8 7 6 6 5 5 6 8 9 11 11 8 5 4 2
4 5 4 5 10 7 5 8 7 5 5 4 2 4 5 6 6 7 8 10 11 11 10 11 12 11 10 10 9 8 8 7 7 6 6 7 7 6 5 8 9 7 4 4
6 6 5 5 6 10 6 6 7 3 2 2 4 2 5 3 4 5 8 8 10 10 11 11 12 11 11 10 10 9 9 8 8 8 7 6 6 7 8 9 7 7 7 6
9 9 9 5 2 1 5 5 4 2 1 4 4 3 6 6 9 9 9 10 11 10 9 9 10 12 12 12 11 9 10 9 8 8 7 7 7 9 11 11 9 6 6 6
5 4 6 3 3 7 2 2 2 3 3 3 4 6 7 11 13 11 13 12 11 11 10 9 9 11 10 10 9 9 9 7 6 7 8 8 8 8 8 8 8 7 4 4
12 8 5 5 4 3 3 3 5 3 4 2 3 7 5 8 10 8 10 8 9 11 10 9 9 9 9 10 10 10 9 8 8 8 7 8 9 9 9 8 7 7 7 6
2 2 7 8 6 5 3 2 5 5 3 3 4 7 3 6 7 7 9 10 9 11 10 9 9 10 10 10 10 10 9 9 8 8 7 7 9 10 10 10 9 8 6 5
3 6 6 6 5 3 3 4 6 7 5 5 7 7 8 10 11 9 10 9 12 14 13 11 10 11 11 11 11 11 10 9 9 8 8 7 7 6 7 8 7 6 3 2
3 2 2 6 7 3 5 6 7 8 8 9 9 9 14 13 10 11 12 7 9 9 10 12 13 12 11 11 11 11 11 10 10 9 9 9 7 6 6 5 5 4 4 6
2 3 3 7 8 4 9 12 11 11 10 13 13 13 15 14 4 8 9 9 10 10 12 14 13 12 11 12 12 11 10 10 11 11 12 9 8 8 8 8 7 6 6 6
4 2 2 5 5 9 10 9 11 11 12 12 14 13 9 6 7 8 10 9 13 12 11 10 7 6 7 8 9 11 11 9 13 15 14 11 10 10 10 10 7 5 4 2
5 3 2 3 2 6 10 8 11 10 12 15 16 11 9 9 8 5 8 8 8 8 6 5 5 4 2 1 6 9 8 10 14 13 12 12 12 13 12 10 10 7 4 3
7 6 1 1 2 9 13 9 4 6 12 15 18 14 7 6 3 3 2 4 8 8 7 6 6 6 6 6 5 3 5 6 8 8 10 11 11 10 10 11 11 7 5 5
6 3 3 2 2 5 8 7 11 9 6 5 5 6 7 8 4 4 1 6 9 9 8 8 7 6 7 6 7 9 7 4 2 5 5 7 10 10 8 8 6 4 4 5
1 1 3 3 1 9 11 10 7 3 4 4 6 6 7 6 5 7 9 8 8 8 8 7 8 7 6 6 9 9 9 7 4 4 5 5 4 5 9 9 5 2 5 4
3 2 3 2 4 8 6 6 3 8 6 2 4 3 4 5 8 10 11 9 9 8 7 7 7 6 6 7 9 8 7 4 4 5 5 5 8 8 8 7 6 6 7 4
1 2 1 4 8 6 11 10 17 18 11 2 3 2 7 7 7 9 9 9 8 8 6 5 6 5 4 4 7 7 4 4 6 5 3 3 6 7 6 7 9 7 6 5
3 0 4 5 9 13 18 15 18 17 8 5 7 7 9 9 9 9 9 8 7 6 6 6 6 5 3 2 2 3 3 4 5 3 3 4 5 6 5 4 6 6 5 3
4 2 3 6 10 16 14 14 18 20 10 6 5 5 7 10 12 12 9 9 8 7 5 6 6 6 6 5 5 4 3 4 3 4 4 3 3 4 4 2 1 3 4 4
8 6 4 6 7 7 17 20 26 25 21 4 3 2 4 8 11 11 10 10 9 8 6 6 6 6 6 6 6 5 4 4 4 3 2 1 2 2 3 4 4 8 5 4
Wind_Direction
315 143 205 224 212 215 240 239 253 263 270 260 251 234 242 249 232 126 134 145 131 124 129 108 62 80 140 161 180 185 173 158 139 146 150 153 171 181 224 219 192 193 175 183
351 281 264 263 248 227 255 263 271 281 276 264 259 251 246 256 228 170 160 166 161 146 128 97 83 86 118 143 167 194 173 153 161 163 161 126 155 189 205 203 178 183 177 170
190 231 263 274 274 275 253 229 234 258 297 305 275 291 293 293 153 148 162 172 168 154 149 144 128 116 114 133 161 172 182 166 156 137 158 129 148 194 150 149 174 162 145 140
215 223 221 257 276 270 254 242 244 263 275 284 1 292 287 239 174 187 183 174 168 160 149 156 146 143 146 148 143 149 172 186 177 166 184 180 175 199 174 165 150 118 143 139
234 243 248 251 264 268 237 266 262 263 229 280 282 252 288 170 205 219 210 186 177 168 167 171 163 162 163 163 179 188 176 190 215 201 198 179 146 115 107 107 92 77 38 121
239 244 238 240 246 228 310 30 23 29 61 287 248 204 273 232 202 182 208 200 185 182 194 184 168 163 166 174 183 184 182 202 199 197 192 163 153 135 124 107 94 101 185 57
283 244 226 215 244 265 84 76 357 340 244 240 238 195 255 248 173 175 193 200 195 191 189 183 175 176 173 179 183 178 179 186 179 179 183 167 169 161 153 140 135 147 189 163
250 266 228 210 200 183 182 150 175 197 212 264 267 242 255 215 189 182 187 186 189 195 194 191 187 180 180 181 181 173 168 172 169 176 189 191 181 147 132 129 140 159 178 159
234 251 279 263 197 152 172 179 180 159 259 269 253 288 309 294 251 202 196 189 198 197 198 197 188 182 180 175 180 178 172 175 172 175 176 186 170 137 129 124 142 156 160 170
231 260 278 295 104 218 150 158 110 95 219 255 269 237 226 219 237 229 219 214 215 210 201 197 185 183 182 181 185 183 182 183 183 179 179 177 175 159 158 155 158 155 155 155
355 253 286 328 249 222 166 123 106 184 174 195 241 261 219 202 225 223 223 218 211 210 202 187 187 183 178 178 182 190 193 186 186 198 189 176 183 177 174 178 174 164 167 161
13 355 320 297 317 73 107 116 124 179 246 196 196 266 255 236 265 242 232 229 208 203 200 183 181 174 173 178 182 188 190 176 187 198 197 174 177 183 187 198 200 186 179 168
184 297 321 321 333 24 56 137 133 148 164 213 216 260 312 307 296 273 252 239 192 182 189 177 173 178 183 185 185 190 186 179 179 183 192 181 176 180 190 187 204 215 196 163
200 175 192 218 253 280 247 230 176 155 175 216 226 253 295 306 303 301 272 230 185 186 181 176 187 195 193 192 188 187 185 180 171 171 178 184 181 177 183 182 195 214 211 267
49 219 245 271 284 257 248 246 232 201 198 217 240 232 258 257 258 287 276 226 176 184 175 185 196 204 197 195 191 190 188 179 173 178 191 201 191 184 193 204 205 220 240 243
353 280 295 277 296 294 266 251 244 242 226 229 243 243 240 245 250 281 262 192 192 198 195 199 203 203 200 198 197 194 195 187 179 188 201 200 190 188 196 215 216 210 225 234
238 246 344 307 330 319 285 256 236 227 223 230 237 237 222 210 196 226 246 216 209 201 206 214 212 213 221 217 202 200 203 180 191 199 200 198 189 191 197 199 202 222 218 201
189 161 186 284 354 265 267 267 259 251 255 242 239 231 208 205 213 235 227 176 157 141 132 121 118 107 81 161 200 211 193 196 205 198 196 198 192 197 193 182 185 188 184 207
176 157 170 318 273 294 305 302 270 214 256 241 224 226 220 177 108 326 326 121 137 132 126 114 102 85 53 35 35 107 168 195 210 194 186 191 193 200 191 182 174 166 179 204
58 92 124 75 311 266 268 299 338 337 316 341 127 163 153 129 131 235 81 87 95 100 107 109 104 90 67 37 50 65 67 94 208 217 186 189 189 185 163 140 134 151 191 223
94 311 112 121 257 266 268 283 313 352 299 348 89 124 146 162 173 149 122 107 110 111 110 103 90 76 62 75 79 69 68 67 59 81 111 115 119 127 124 130 154 186 255 242
177 202 186 163 229 255 344 324 307 308 297 100 91 132 135 118 119 124 126 129 126 120 116 108 97 86 74 85 89 81 76 77 81 81 96 120 117 119 138 162 196 201 233 232
230 182 231 251 246 298 323 289 293 292 278 199 113 115 128 133 142 139 140 140 135 131 134 131 124 115 104 112 116 119 155 150 120 111 127 140 130 130 155 195 196 195 195 182
310 325 230 272 291 327 308 306 317 295 242 175 175 162 158 170 159 149 148 141 141 150 154 158 144 150 197 205 173 158 167 140 114 112 144 165 158 156 180 200 187 169 162 179
276 284 273 274 315 337 324 319 321 338 309 177 196 185 163 162 168 162 156 155 162 166 171 168 176 196 233 248 237 230 186 144 99 88 109 123 163 164 142 119 96 156 166 175
247 225 221 255 270 292 287 300 317 322 303 269 176 166 168 164 164 157 158 164 168 175 178 187 206 220 248 265 228 204 174 140 120 91 74 77 114 109 107 121 81 52 55 88
Height
1503 1506 1510 1506 1504 1504 1503 1504 1505 1496 1485 1488 1490 1490 1483 1479 1480 1481 1483 1484 1485 1487 1488 1488 1487 1487 1488 1491 1494 1497 1499 1499 1501 1503 1505 1506 1509 1512 1515 1516 1518 1522 1524 1527
1506 1508 1499 1498 1497 1499 1498 1502 1502 1494 1483 1486 1485 1484 1479 1476 1476 1476 1479 1481 1483 1485 1487 1487 1486 1487 1488 1490 1494 1496 1497 1498 1499 1501 1503 1505 1508 1508 1509 1512 1515 1519 1521 1525
1507 1502 1496 1496 1496 1496 1495 1498 1497 1496 1486 1482 1486 1490 1482 1476 1474 1475 1476 1478 1480 1482 1485 1487 1487 1487 1488 1490 1493 1494 1496 1497 1498 1499 1501 1502 1503 1503 1506 1509 1512 1515 1518 1521
1502 1494 1496 1496 1493 1491 1499 1486 1486 1487 1494 1499 1491 1509 1488 1477 1477 1477 1477 1478 1479 1481 1483 1485 1486 1486 1487 1489 1491 1492 1493 1495 1497 1498 1497 1499 1499 1500 1503 1506 1509 1512 1515 1519
1499 1491 1493 1495 1490 1483 1487 1479 1482 1484 1491 1498 1495 1504 1492 1480 1482 1478 1477 1477 1479 1479 1482 1484 1485 1486 1487 1487 1489 1490 1491 1492 1493 1493 1493 1495 1495 1497 1500 1503 1505 1509 1513 1516
1490 1486 1486 1484 1479 1477 1476 1480 1488 1494 1500 1512 1498 1500 1498 1485 1477 1476 1475 1476 1478 1480 1482 1483 1484 1486 1486 1486 1487 1488 1489 1490 1490 1490 1490 1492 1493 1496 1498 1500 1502 1507 1511 1514
1490 1482 1477 1476 1480 1478 1481 1496 1512 1515 1516 1512 1493 1495 1492 1474 1470 1471 1473 1475 1478 1479 1480 1481 1482 1483 1484 1485 1486 1487 1487 1488 1488 1488 1488 1490 1492 1494 1497 1499 1502 1506 1510 1513
1500 1501 1475 1471 1473 1480 1482 1495 1516 1523 1524 1510 1492 1499 1483 1470 1468 1469 1471 1473 1475 1477 1478 1478 1479 1481 1482 1483 1484 1485 1486 1486 1486 1487 1488 1489 1491 1494 1496 1497 1501 1505 1509 1511
1494 1489 1470 1465 1464 1469 1486 1487 1485 1500 1506 1514 1500 1486 1476 1471 1471 1470 1471 1472 1473 1474 1474 1475 1476 1478 1480 1481 1482 1483 1484 1485 1485 1486 1487 1489 1491 1494 1496 1498 1502 1506 1509 1512
1481 1491 1474 1465 1463 1466 1471 1475 1499 1501 1516 1521 1503 1496 1491 1479 1474 1469 1470 1470 1470 1470 1471 1472 1474 1475 1477 1479 1481 1482 1483 1484 1486 1486 1487 1488 1492 1494 1497 1499 1501 1505 1508 1511
1486 1489 1483 1472 1472 1473 1474 1478 1484 1494 1499 1512 1517 1503 1475 1471 1467 1466 1464 1464 1466 1467 1468 1469 1471 1473 1476 1477 1478 1480 1481 1484 1485 1486 1486 1487 1489 1493 1495 1497 1499 1502 1505 1507
1497 1503 1494 1482 1474 1468 1476 1481 1491 1509 1507 1508 1512 1502 1466 1465 1462 1461 1459 1460 1461 1463 1465 1466 1468 1471 1473 1474 1475 1477 1479 1481 1483 1484 1484 1485 1486 1489 1491 1493 1494 1498 1501 1503
1501 1510 1508 1495 1487 1479 1482 1483 1487 1496 1504 1507 1510 1498 1466 1463 1460 1458 1457 1455 1455 1459 1461 1463 1465 1468 1469 1471 1472 1474 1476 1478 1480 1481 1482 1483 1484 1487 1488 1489 1492 1496 1499 1499
1489 1498 1504 1503 1491 1485 1485 1481 1481 1488 1499 1498 1494 1484 1470 1463 1460 1458 1457 1452 1452 1455 1455 1459 1462 1464 1466 1467 1469 1471 1473 1474 1476 1478 1480 1482 1484 1486 1487 1489 1492 1495 1496 1496
1485 1490 1491 1487 1482 1479 1480 1478 1476 1482 1482 1489 1478 1475 1467 1462 1460 1455 1452 1450 1449 1451 1453 1456 1458 1459 1461 1463 1465 1467 1469 1471 1473 1475 1477 1480 1482 1485 1487 1487 1489 1492 1493 1493
1486 1488 1488 1482 1476 1477 1479 1473 1471 1471 1471 1472 1468 1465 1455 1453 1455 1453 1448 1447 1448 1450 1451 1452 1454 1456 1457 1460 1461 1464 1466 1467 1469 1471 1473 1476 1479 1480 1482 1484 1486 1488 1490 1491
1486 1486 1489 1490 1479 1479 1481 1462 1461 1459 1454 1457 1460 1454 1449 1449 1448 1448 1447 1445 1444 1446 1449 1451 1453 1454 1456 1457 1459 1460 1463 1465 1465 1465 1468 1471 1473 1475 1477 1480 1482 1484 1487 1489
1482 1486 1489 1492 1489 1497 1465 1450 1450 1451 1447 1444 1442 1441 1441 1443 1443 1445 1443 1440 1441 1445 1449 1451 1452 1452 1453 1454 1455 1456 1459 1460 1461 1460 1463 1466 1469 1470 1472 1475 1477 1480 1482 1484
1472 1482 1489 1494 1492 1479 1457 1445 1443 1446 1441 1429 1430 1432 1436 1440 1443 1443 1441 1441 1444 1447 1449 1450 1451 1451 1451 1451 1451 1451 1452 1454 1456 1457 1459 1462 1465 1467 1469 1470 1471 1475 1478 1480
1476 1479 1485 1492 1496 1489 1461 1446 1442 1443 1444 1425 1425 1430 1434 1438 1447 1445 1442 1443 1445 1447 1449 1450 1450 1451 1450 1449 1449 1449 1449 1450 1451 1453 1455 1457 1460 1462 1464 1468 1470 1473 1475 1476
1483 1484 1486 1489 1493 1481 1454 1447 1447 1457 1451 1433 1430 1431 1433 1435 1437 1438 1441 1443 1445 1447 1448 1449 1450 1449 1448 1448 1447 1448 1449 1449 1449 1450 1451 1453 1456 1458 1461 1465 1469 1472 1475 1474
1480 1482 1482 1485 1489 1479 1453 1450 1453 1451 1438 1433 1433 1433 1432 1432 1433 1436 1439 1442 1445 1446 1447 1448 1448 1448 1448 1448 1448 1448 1448 1448 1449 1449 1450 1452 1453 1454 1458 1462 1466 1468 1470 1470
1478 1476 1476 1477 1469 1454 1453 1453 1447 1443 1441 1435 1434 1433 1433 1434 1435 1437 1439 1442 1444 1445 1446 1447 1447 1448 1448 1449 1450 1450 1449 1449 1449 1449 1450 1451 1451 1451 1454 1457 1460 1464 1465 1465
1474 1472 1472 1469 1456 1452 1447 1445 1442 1436 1435 1434 1434 1433 1434 1434 1435 1437 1439 1441 1444 1445 1445 1446 1446 1447 1449 1450 1450 1451 1450 1450 1449 1449 1449 1450 1451 1452 1453 1455 1457 1459 1460 1461
1476 1474 1472 1467 1457 1450 1444 1446 1446 1440 1436 1432 1432 1432 1432 1433 1433 1435 1438 1441 1443 1444 1445 1445 1446 1447 1448 1450 1450 1451 1451 1450 1449 1448 1448 1449 1450 1451 1453 1454 1456 1458 1459 1460
1473 1473 1472 1467 1459 1458 1450 1445 1442 1440 1438 1433 1431 1431 1432 1431 1431 1433 1437 1440 1442 1443 1445 1446 1447 1447 1448 1449 1449 1449 1449 1449 1448 1447 1448 1448 1449 1450 1450 1453 1454 1455 1456 1457